Location: Ashtead
(51.3000°N, 0.3000°W)
Time: 05:07:01
(UTC+00:00)

Cosmos 2082 Rocket - Pass Details

Date: 26 September 2023
Orbit: 834 x 852 km, 71.0° (Epoch: 29 November)

Event Time Altitude Azimuth Distance (km) Brightness Sun altitude
Exits shadow 04:25:13 16° 284° (WNW) 2,086 3.7 -14.4°
Maximum altitude 04:28:07 23° 323° (NW) 1,742 3.6 -13.9°
Drops below altitude 10° 04:32:36 10° 15° (NNE) 2,491 5.1 -13.3°
Sets 04:35:36 0° 30° (NNE) 3,428 6.1 -12.8°
